| time (UTC) | temp F | wind direction | speed MPH | gust MPH | rain 1hr in | rain 24hr in | rain mn in | humidity % | barometer mb |
| 20260507090121 | 49 | 309 | 4.0 | 8.0 | 0.01 | 0.24 | 0.15 | 99 | 1007.5 |
| 20260507085143 | 50 | 312 | 5.0 | 8.0 | 0.00 | 0.23 | 0.14 | 99 | 1007.5 |
| 20260507084125 | 50 | 331 | 5.0 | 9.0 | 0.00 | 0.23 | 0.14 | 99 | 1007.0 |
| 20260507083121 | 50 | 294 | 5.0 | 9.0 | 0.00 | 0.23 | 0.14 | 99 | 1007.2 |
| 20260507082121 | 50 | 315 | 5.0 | 9.0 | 0.00 | 0.23 | 0.14 | 99 | 1007.1 |
| 20260507081142 | 50 | 309 | 5.0 | 9.0 | 0.00 | 0.23 | 0.14 | 99 | 1007.2 |
| 20260507080122 | 51 | 352 | 4.0 | 8.0 | 0.01 | 0.23 | 0.14 | 99 | 1007.2 |
| 20260507075142 | 51 | 293 | 3.0 | 6.0 | 0.01 | 0.23 | 0.14 | 99 | 1007.4 |
| 20260507074142 | 51 | 321 | 3.0 | 8.0 | 0.04 | 0.23 | 0.14 | 99 | 1007.5 |
| 20260507073121 | 51 | 312 | 5.0 | 9.0 | 0.07 | 0.23 | 0.14 | 99 | 1007.2 |
| 20260507072142 | 51 | 320 | 4.0 | 9.0 | 0.10 | 0.23 | 0.14 | 99 | 1007.2 |
| 20260507071121 | 52 | 302 | 3.0 | 6.0 | 0.13 | 0.23 | 0.14 | 99 | 1007.1 |
| 20260507070125 | 52 | 296 | 4.0 | 7.0 | 0.13 | 0.22 | 0.13 | 99 | 1006.5 |
| 20260507065121 | 52 | 322 | 3.0 | 5.0 | 0.13 | 0.22 | 0.13 | 99 | 1006.5 |
| 20260507064124 | 53 | 321 | 3.0 | 6.0 | 0.10 | 0.19 | 0.10 | 99 | 1007.2 |
| 20260507063145 | 53 | 302 | 3.0 | 7.0 | 0.07 | 0.16 | 0.07 | 99 | 1006.8 |
| 20260507062121 | 53 | 273 | 3.0 | 5.0 | 0.04 | 0.13 | 0.04 | 99 | 1006.2 |
| 20260507061122 | 54 | 280 | 3.0 | 5.0 | 0.01 | 0.10 | 0.01 | 99 | 1006.8 |
| 20260507060122 | 55 | 292 | 3.0 | 7.0 | 0.00 | 0.09 | 0.00 | 97 | 1006.8 |
| 20260507055143 | 56 | 282 | 3.0 | 7.0 | 0.00 | 0.09 | 0.00 | 97 | 1006.8 |
| 20260507054123 | 56 | 310 | 2.0 | 4.0 | 0.00 | 0.09 | 0.00 | 99 | 1006.4 |
| 20260507053123 | 56 | 8 | 2.0 | 4.0 | 0.00 | 0.09 | 0.00 | 99 | 1006.2 |
| 20260507052121 | 56 | 303 | 2.0 | 6.0 | 0.00 | 0.09 | 0.00 | 99 | 1006.4 |
| 20260507051121 | 56 | 285 | 2.0 | 4.0 | 0.00 | 0.09 | 0.00 | 99 | 1006.5 |
| 20260507050142 | 56 | 281 | 2.0 | 5.0 | 0.00 | 0.09 | 0.00 | 99 | 1006.4 |
| 20260507045121 | 56 | 284 | 2.0 | 4.0 | 0.00 | 0.09 | 0.00 | 99 | 1006.4 |
| 20260507044142 | 56 | 285 | 2.0 | 4.0 | 0.00 | 0.09 | 0.00 | 99 | 1006.7 |
| 20260507043125 | 56 | 295 | 2.0 | 3.0 | 0.00 | 0.09 | 0.00 | 99 | 1007.0 |
| 20260507042123 | 56 | 294 | 2.0 | 4.0 | 0.00 | 0.09 | 0.00 | 99 | 1006.8 |
| 20260507041124 | 57 | 281 | 2.0 | 3.0 | 0.00 | 0.09 | 0.00 | 99 | 1006.9 |
| 20260507040121 | 57 | 295 | 2.0 | 6.0 | 0.00 | 0.09 | 0.00 | 99 | 1006.7 |
| 20260507035121 | 57 | 320 | 2.0 | 3.0 | 0.01 | 0.09 | 0.09 | 99 | 1006.7 |
| 20260507034145 | 57 | 288 | 3.0 | 5.0 | 0.01 | 0.09 | 0.09 | 99 | 1006.7 |
| 20260507033121 | 57 | 299 | 2.0 | 5.0 | 0.01 | 0.09 | 0.09 | 99 | 1006.6 |
| 20260507032142 | 57 | 280 | 4.0 | 7.0 | 0.01 | 0.09 | 0.09 | 99 | 1006.4 |
| 20260507031121 | 57 | 320 | 4.0 | 6.0 | 0.02 | 0.09 | 0.09 | 99 | 1006.5 |
| 20260507030143 | 58 | 334 | 4.0 | 6.0 | 0.03 | 0.09 | 0.09 | 99 | 1006.5 |
| 20260507025123 | 58 | 0 | 1.0 | 3.0 | 0.02 | 0.08 | 0.08 | 99 | 1006.6 |
| 20260507024121 | 58 | 203 | 0.0 | 0.0 | 0.02 | 0.08 | 0.08 | 99 | 1006.6 |
| 20260507023122 | 58 | 338 | 0.0 | 0.0 | 0.04 | 0.08 | 0.08 | 99 | 1006.8 |
| 20260507022123 | 58 | 265 | 2.0 | 4.0 | 0.04 | 0.08 | 0.08 | 99 | 1006.6 |
| 20260507021123 | 58 | 95 | 1.0 | 4.0 | 0.03 | 0.07 | 0.07 | 99 | 1006.0 |
| 20260507020122 | 58 | 96 | 0.0 | 2.0 | 0.02 | 0.06 | 0.06 | 99 | 1006.0 |
| 20260507015143 | 58 | 158 | 0.0 | 0.0 | 0.02 | 0.06 | 0.06 | 99 | 1006.4 |
| 20260507014122 | 58 | 207 | 1.0 | 2.0 | 0.02 | 0.06 | 0.06 | 99 | 1006.6 |
| 20260507013143 | 58 | 220 | 1.0 | 2.0 | 0.00 | 0.04 | 0.04 | 99 | 1006.2 |
| 20260507012142 | 58 | 213 | 0.0 | 2.0 | 0.00 | 0.04 | 0.04 | 99 | 1006.1 |
| 20260507011143 | 58 | 196 | 0.0 | 2.0 | 0.00 | 0.04 | 0.04 | 99 | 1006.2 |
| 20260507010121 | 58 | 212 | 1.0 | 2.0 | 0.00 | 0.04 | 0.04 | 99 | 1006.2 |
| 20260507005121 | 58 | 225 | 1.0 | 3.0 | 0.00 | 0.04 | 0.04 | 99 | 1006.2 |
| 20260507004142 | 59 | 263 | 1.0 | 2.0 | 0.00 | 0.04 | 0.04 | 99 | 1006.0 |
| 20260507003144 | 59 | 177 | 1.0 | 3.0 | 0.00 | 0.04 | 0.04 | 99 | 1006.2 |
| 20260507002121 | 59 | 195 | 1.0 | 2.0 | 0.00 | 0.04 | 0.04 | 99 | 1006.2 |
| 20260507001123 | 59 | 166 | 0.0 | 2.0 | 0.00 | 0.04 | 0.04 | 99 | 1006.2 |
| 20260507000121 | 59 | 241 | 1.0 | 3.0 | 0.00 | 0.04 | 0.04 | 99 | 1006.0 |
| 20260506235123 | 59 | 251 | 1.0 | 2.0 | 0.00 | 0.04 | 0.04 | 99 | 1006.0 |
| 20260506234145 | 59 | 182 | 1.0 | 3.0 | 0.00 | 0.04 | 0.04 | 99 | 1005.8 |
| 20260506233121 | 59 | 223 | 1.0 | 3.0 | 0.00 | 0.04 | 0.04 | 99 | 1006.0 |
| 20260506232142 | 59 | 200 | 1.0 | 3.0 | 0.00 | 0.04 | 0.04 | 99 | 1005.9 |
| 20260506231124 | 59 | 263 | 1.0 | 3.0 | 0.00 | 0.04 | 0.04 | 99 | 1005.8 |
| 20260506230121 | 59 | 250 | 2.0 | 4.0 | 0.00 | 0.04 | 0.04 | 99 | 1005.7 |
| 20260506225121 | 59 | 275 | 2.0 | 3.0 | 0.00 | 0.04 | 0.04 | 99 | 1005.7 |
| 20260506224144 | 59 | 255 | 2.0 | 3.0 | 0.00 | 0.04 | 0.04 | 99 | 1005.7 |
| 20260506223122 | 58 | 277 | 2.0 | 4.0 | 0.00 | 0.04 | 0.04 | 99 | 1005.6 |
| 20260506222122 | 59 | 234 | 3.0 | 4.0 | 0.00 | 0.04 | 0.04 | 99 | 1005.7 |
| 20260506221122 | 59 | 235 | 2.0 | 4.0 | 0.00 | 0.04 | 0.04 | 99 | 1005.7 |
| 20260506220122 | 59 | 242 | 3.0 | 5.0 | 0.00 | 0.04 | 0.04 | 99 | 1005.6 |
| 20260506215124 | 60 | 247 | 2.0 | 5.0 | 0.00 | 0.04 | 0.04 | 99 | 1005.6 |
| 20260506214123 | 60 | 237 | 2.0 | 4.0 | 0.00 | 0.04 | 0.04 | 99 | 1005.2 |
| 20260506213122 | 60 | 241 | 2.0 | 4.0 | 0.00 | 0.04 | 0.04 | 99 | 1005.2 |
| 20260506212124 | 60 | 236 | 3.0 | 5.0 | 0.00 | 0.04 | 0.04 | 99 | 1005.1 |
| 20260506211122 | 60 | 237 | 1.0 | 5.0 | 0.00 | 0.04 | 0.04 | 99 | 1005.0 |
| 20260506210121 | 60 | 258 | 1.0 | 3.0 | 0.00 | 0.04 | 0.04 | 99 | 1005.0 |
| 20260506205121 | 60 | 222 | 2.0 | 3.0 | 0.00 | 0.04 | 0.04 | 99 | 1005.0 |
| 20260506204121 | 59 | 253 | 2.0 | 5.0 | 0.00 | 0.04 | 0.04 | 99 | 1005.2 |
| 20260506203121 | 58 | 255 | 1.0 | 3.0 | 0.01 | 0.04 | 0.04 | 99 | 1005.2 |
| 20260506202145 | 58 | 203 | 2.0 | 4.0 | 0.02 | 0.04 | 0.04 | 99 | 1005.4 |
| 20260506201124 | 58 | 223 | 2.0 | 3.0 | 0.02 | 0.04 | 0.04 | 99 | 1005.7 |
| 20260506200121 | 58 | 224 | 2.0 | 4.0 | 0.02 | 0.04 | 0.04 | 99 | 1005.7 |
| 20260506195121 | 58 | 262 | 2.0 | 6.0 | 0.02 | 0.04 | 0.04 | 99 | 1005.7 |
| 20260506194123 | 58 | 259 | 3.0 | 5.0 | 0.02 | 0.04 | 0.04 | 99 | 1005.8 |
| 20260506193121 | 58 | 249 | 3.0 | 6.0 | 0.01 | 0.03 | 0.03 | 99 | 1006.1 |
| 20260506192121 | 58 | 247 | 5.0 | 12.0 | 0.00 | 0.02 | 0.02 | 99 | 1006.0 |
| 20260506191121 | 59 | 256 | 5.0 | 11.0 | 0.00 | 0.02 | 0.02 | 99 | 1005.9 |
| 20260506190146 | 59 | 253 | 5.0 | 10.0 | 0.00 | 0.02 | 0.02 | 99 | 1005.9 |
| 20260506185145 | 60 | 212 | 4.0 | 8.0 | 0.00 | 0.02 | 0.02 | 99 | 1005.7 |
| 20260506184124 | 59 | 168 | 3.0 | 4.0 | 0.00 | 0.02 | 0.02 | 99 | 1005.9 |
| 20260506183123 | 59 | 225 | 3.0 | 6.0 | 0.00 | 0.02 | 0.02 | 99 | 1006.2 |
| 20260506182127 | 59 | 220 | 3.0 | 5.0 | 0.01 | 0.02 | 0.02 | 99 | 1006.5 |
| 20260506181122 | 59 | 249 | 4.0 | 6.0 | 0.01 | 0.02 | 0.02 | 99 | 1006.4 |
| 20260506180146 | 59 | 215 | 3.0 | 5.0 | 0.01 | 0.02 | 0.02 | 99 | 1006.4 |
| 20260506175122 | 59 | 266 | 3.0 | 5.0 | 0.02 | 0.02 | 0.02 | 99 | 1006.4 |
| 20260506174123 | 59 | 252 | 3.0 | 6.0 | 0.02 | 0.02 | 0.02 | 99 | 1006.7 |
| 20260506173122 | 59 | 221 | 3.0 | 5.0 | 0.02 | 0.02 | 0.02 | 99 | 1006.7 |
| 20260506172122 | 59 | 235 | 4.0 | 8.0 | 0.01 | 0.01 | 0.01 | 99 | 1007.2 |
| 20260506171122 | 60 | 246 | 2.0 | 5.0 | 0.01 | 0.01 | 0.01 | 99 | 1007.4 |
| 20260506170121 | 59 | 231 | 3.0 | 9.0 | 0.01 | 0.01 | 0.01 | 99 | 1007.5 |
| 20260506165121 | 60 | 238 | 4.0 | 7.0 | 0.00 | 0.00 | 0.00 | 99 | 1007.5 |
| 20260506164143 | 60 | 205 | 3.0 | 7.0 | 0.00 | 0.00 | 0.00 | 97 | 1007.9 |
| 20260506163121 | 62 | 252 | 3.0 | 9.0 | 0.00 | 0.00 | 0.00 | 91 | 1008.0 |
| 20260506162121 | 62 | 241 | 4.0 | 8.0 | 0.00 | 0.00 | 0.00 | 89 | 1008.0 |
| 20260506161121 | 63 | 258 | 5.0 | 8.0 | 0.00 | 0.00 | 0.00 | 89 | 1008.1 |
| 20260506160121 | 64 | 241 | 4.0 | 7.0 | 0.00 | 0.00 | 0.00 | 87 | 1007.8 |
| 20260506155121 | 63 | 251 | 5.0 | 8.0 | 0.00 | 0.00 | 0.00 | 90 | 1007.8 |
| 20260506154121 | 62 | 235 | 5.0 | 10.0 | 0.00 | 0.00 | 0.00 | 90 | 1008.0 |
| 20260506153123 | 63 | 235 | 5.0 | 10.0 | 0.00 | 0.00 | 0.00 | 88 | 1008.2 |
| 20260506152122 | 65 | 267 | 4.0 | 9.0 | 0.00 | 0.00 | 0.00 | 87 | 1008.2 |
| 20260506151142 | 65 | 268 | 5.0 | 9.0 | 0.00 | 0.00 | 0.00 | 86 | 1008.4 |
| 20260506150121 | 66 | 220 | 5.0 | 9.0 | 0.00 | 0.00 | 0.00 | 84 | 1008.1 |
| 20260506145122 | 66 | 225 | 3.0 | 6.0 | 0.00 | 0.00 | 0.00 | 85 | 1008.1 |
| 20260506144122 | 64 | 193 | 3.0 | 7.0 | 0.00 | 0.00 | 0.00 | 88 | 1008.1 |
| 20260506143122 | 64 | 184 | 3.0 | 5.0 | 0.00 | 0.00 | 0.00 | 89 | 1007.9 |
| 20260506142122 | 63 | 269 | 4.0 | 6.0 | 0.00 | 0.00 | 0.00 | 88 | 1008.1 |
| 20260506141123 | 64 | 227 | 4.0 | 8.0 | 0.00 | 0.00 | 0.00 | 88 | 1008.2 |
| 20260506140122 | 64 | 222 | 4.0 | 6.0 | 0.00 | 0.00 | 0.00 | 87 | 1008.2 |
| 20260506135123 | 65 | 231 | 3.0 | 6.0 | 0.00 | 0.00 | 0.00 | 86 | 1008.2 |
| 20260506134144 | 65 | 235 | 5.0 | 7.0 | 0.00 | 0.00 | 0.00 | 86 | 1008.4 |
| 20260506133143 | 65 | 215 | 5.0 | 8.0 | 0.00 | 0.00 | 0.00 | 86 | 1008.4 |
| 20260506132122 | 65 | 210 | 4.0 | 8.0 | 0.00 | 0.00 | 0.00 | 86 | 1008.2 |
| 20260506131121 | 65 | 241 | 3.0 | 6.0 | 0.00 | 0.00 | 0.00 | 86 | 1008.2 |
| 20260506130121 | 64 | 225 | 3.0 | 6.0 | 0.00 | 0.00 | 0.00 | 87 | 1008.2 |
| 20260506125121 | 63 | 239 | 3.0 | 6.0 | 0.00 | 0.00 | 0.00 | 89 | 1008.2 |
| 20260506124145 | 62 | 232 | 4.0 | 8.0 | 0.00 | 0.00 | 0.00 | 91 | 1008.2 |
| 20260506123123 | 62 | 236 | 3.0 | 6.0 | 0.00 | 0.00 | 0.00 | 91 | 1008.2 |
| 20260506122122 | 62 | 221 | 4.0 | 8.0 | 0.00 | 0.00 | 0.00 | 90 | 1008.6 |
| 20260506121121 | 63 | 259 | 4.0 | 7.0 | 0.00 | 0.00 | 0.00 | 90 | 1008.6 |
| 20260506120121 | 61 | 241 | 4.0 | 6.0 | 0.00 | 0.00 | 0.00 | 93 | 1008.7 |
| 20260506115121 | 61 | 230 | 3.0 | 5.0 | 0.00 | 0.00 | 0.00 | 95 | 1008.7 |
| 20260506114121 | 61 | 259 | 3.0 | 5.0 | 0.00 | 0.00 | 0.00 | 95 | 1008.7 |
| 20260506113122 | 60 | 274 | 4.0 | 6.0 | 0.00 | 0.00 | 0.00 | 95 | 1008.6 |
| 20260506112123 | 60 | 261 | 3.0 | 5.0 | 0.00 | 0.00 | 0.00 | 96 | 1008.5 |
| 20260506111123 | 59 | 210 | 3.0 | 10.0 | 0.00 | 0.00 | 0.00 | 98 | 1008.6 |
| 20260506110122 | 58 | 206 | 3.0 | 7.0 | 0.00 | 0.00 | 0.00 | 99 | 1008.6 |
| 20260506105123 | 58 | 209 | 3.0 | 7.0 | 0.00 | 0.00 | 0.00 | 99 | 1008.6 |
| 20260506104122 | 56 | 229 | 3.0 | 6.0 | 0.00 | 0.00 | 0.00 | 99 | 1008.5 |
| 20260506103122 | 56 | 227 | 3.0 | 5.0 | 0.00 | 0.00 | 0.00 | 99 | 1008.5 |
| 20260506102122 | 55 | 207 | 3.0 | 4.0 | 0.00 | 0.00 | 0.00 | 99 | 1008.5 |
| 20260506101122 | 55 | 276 | 2.0 | 5.0 | 0.00 | 0.00 | 0.00 | 99 | 1008.4 |
| 20260506100124 | 55 | 239 | 3.0 | 6.0 | 0.00 | 0.00 | 0.00 | 99 | 1008.4 |
| 20260506095123 | 55 | 217 | 3.0 | 5.0 | 0.00 | 0.00 | 0.00 | 99 | 1008.4 |
| 20260506094123 | 55 | 219 | 2.0 | 5.0 | 0.00 | 0.00 | 0.00 | 99 | 1008.4 |
| 20260506093122 | 55 | 226 | 3.0 | 6.0 | 0.00 | 0.00 | 0.00 | 99 | 1008.4 |
| 20260506092121 | 55 | 198 | 2.0 | 4.0 | 0.00 | 0.00 | 0.00 | 99 | 1008.4 |
| 20260506091121 | 55 | 244 | 2.0 | 4.0 | 0.00 | 0.00 | 0.00 | 99 | 1008.6 |